Starlink 11708

operational
NORAD ID: 64238 Int'l Des: 2025-119 Owner: SPXS Country: US Constellation: starlink
LEOCIRCULAR

关于 Starlink 11708

正在加载描述...

实时位置

正在加载3D地球...

即将过境

高度历史

Altitude vs Time

uPlot chart will show altitude changes over time

两行轨道根数

1 64238U 25119F 25353.02147313 .00234583 00000-0 17678-2 0 9996
2 64238 42.9986 335.7173 0001721 226.4155 133.6570 15.71010481 32556
Epoch: Dec 19, 2025 • Age: 27 hours

当前状态

高度 355.5 km
速度 7.70 km/s
星下点 -4.99°S, 175.32°E
发射日期 Jun 3, 2025
运行时间 0.5 years
类型 internet

技术详情

分类 Payload
质量 960.00 kg
干质量 910.00 kg
总质量 960.00 kg
长度 0.30 m
直径 4.10 m
跨度 29.00 m
形状 Box + pan
制造商 SPXS
平台类型 Starlink V2MD
阶段状态 In Orbit
所有者/国家 SPXS/US

大型星座

Loading constellations...